DW5868 Weather Reports


time (UTC)temp
F
wind
direction
speed
knots
gust
knots
rain 1hr
in
rain 24hr
in
rain mn
in
humidity
%
barometer
mb
20260509160058 61 109 0.9 2.6 0.00 0.00 0.00 32 1011.0
20260509154555 59 27 0.0 3.5 0.00 0.00 0.00 33 1011.1
20260509153055 59 77 0.0 2.6 0.00 0.00 0.00 32 1011.1
20260509151553 58 47 0.0 1.7 0.00 0.00 0.00 32 1011.1
20260509150104 58 87 0.0 1.7 0.00 0.00 0.00 35 1011.1
20260509144653 58 129 0.0 0.9 0.00 0.00 0.00 37 1011.1
20260509143050 57 277 0.0 0.0 0.00 0.00 0.00 41 1011.2
20260509141545 50 277 0.0 0.0 0.00 0.00 0.00 53 1011.2
20260509140040 46 277 0.0 0.0 0.00 0.00 0.00 56 1011.1
20260509134537 43 277 0.0 0.0 0.00 0.00 0.00 60 1010.8
20260509133035 0 0.0 0.0 0.00 0.00 0.00 1010.7
20260509131537 0 0.0 0.0 0.00 0.00 0.00 1010.5
20260509130026 0 0.0 0.0 0.00 0.00 0.00 1010.4
20260509124523 0 0.0 0.0 0.00 0.00 0.00 1010.4
20260509123019 0 0.0 0.0 0.00 0.00 0.00 1010.7
20260509121524 38 281 0.0 0.9 0.00 0.00 0.00 63 1010.8
20260509120016 39 282 0.0 0.9 0.00 0.00 0.00 62 1010.5
20260509114512 38 279 0.0 0.9 0.00 0.00 0.00 63 1010.4
20260509113011 39 277 0.0 0.9 0.00 0.00 0.00 62 1010.2
20260509111512 39 281 0.0 0.9 0.00 0.00 0.00 62 1010.1
20260509110012 39 280 0.0 1.7 0.00 0.00 0.00 64 1010.2
20260509104527 39 276 0.0 1.7 0.00 0.00 0.00 64 1010.1
20260509103007 39 280 0.0 1.7 0.00 0.00 0.00 63 1010.0
20260509101508 41 279 0.0 0.9 0.00 0.00 0.00 61 1010.0
20260509100015 40 280 0.0 1.7 0.00 0.00 0.00 63 1010.2
20260509094516 39 281 0.0 1.7 0.00 0.00 0.00 62 1009.9
20260509093004 40 276 0.0 1.7 0.00 0.00 0.00 60 1010.0
20260509091503 40 280 0.0 1.7 0.00 0.00 0.00 60 1010.1
20260509090003 41 273 0.9 1.7 0.00 0.00 0.00 59 1010.1
20260509084501 40 281 0.9 1.7 0.00 0.00 0.00 59 1009.9
20260509083058 41 277 0.9 2.6 0.00 0.00 0.00 58 1009.9
20260509081556 41 275 0.9 2.6 0.00 0.00 0.00 58 1009.9
20260509080059 42 280 0.0 2.6 0.00 0.00 0.00 57 1010.0
20260509074554 42 280 0.9 2.6 0.00 0.00 0.00 57 1009.9
20260509073052 42 277 0.9 2.6 0.00 0.00 0.00 58 1009.8
20260509071552 43 282 0.9 1.7 0.00 0.00 0.00 57 1009.6
20260509070041 44 275 0.9 2.6 0.00 0.00 0.00 57 1009.6
20260509064535 44 275 0.9 2.6 0.00 0.00 0.00 57 1009.6
20260509063034 44 272 0.9 2.6 0.00 0.00 0.00 60 1009.4
20260509061527 45 279 0.0 1.7 0.00 0.00 0.00 61 1009.5
20260509060024 47 278 0.0 1.7 0.00 0.00 0.00 60 1009.4
20260509054523 49 275 0.9 2.6 0.00 0.00 0.00 54 1009.2
20260509053016 51 206 0.9 5.2 0.00 0.00 0.00 51 1009.1
20260509051513 54 286 3.5 13.0 0.00 0.00 0.00 46 1008.8
20260509050007 54 260 3.5 11.3 0.00 0.00 0.00 48 1008.6
20260509044502 54 259 2.6 11.3 0.00 0.00 0.00 51 1008.6
20260509043110 53 292 3.5 10.4 0.00 0.00 0.00 51 1008.4
20260509041556 54 276 6.1 14.8 0.00 0.00 0.00 50 1008.2
20260509040054 54 271 4.3 12.2 0.00 0.00 0.00 52 1008.1
20260509034558 54 287 3.5 15.6 0.00 0.00 0.00 54 1007.9
20260509033044 55 196 3.5 8.7 0.00 0.00 0.00 54 1007.8
20260509031547 55 191 4.3 10.4 0.00 0.00 0.00 56 1007.6
20260509030035 55 249 3.5 9.6 0.00 0.00 0.00 56 1007.6
20260509024531 56 256 2.6 9.6 0.00 0.00 0.00 55 1007.5
20260509023031 57 302 3.5 10.4 0.00 0.00 0.00 54 1007.4
20260509021524 58 346 2.6 12.2 0.00 0.00 0.00 51 1007.4
20260509020020 62 284 2.6 8.7 0.00 0.00 0.00 46 1007.4
20260509014516 63 233 0.9 7.8 0.00 0.00 0.00 43 1007.5
20260509013032 63 281 2.6 7.8 0.00 0.00 0.00 40 1007.6
20260509011508 65 244 1.7 9.6 0.00 0.00 0.00 39 1007.6
20260509010004 65 201 1.7 10.4 0.00 0.00 0.00 36 1007.7
20260509004559 66 257 0.9 7.8 0.00 0.00 0.00 35 1007.8
20260509003101 65 266 2.6 8.7 0.00 0.00 0.00 35 1007.9
20260509001551 66 248 2.6 7.0 0.00 0.00 0.00 36 1008.0
20260509000047 66 199 0.9 9.6 0.00 0.00 0.00 33 1008.3
20260508234543 66 241 2.6 5.2 0.00 0.00 0.00 31 1008.5
20260508233044 67 276 0.9 6.1 0.00 0.00 0.00 31 1008.7
20260508231542 65 215 3.5 9.6 0.00 0.00 0.00 32 1008.8
20260508230050 65 245 5.2 9.6 0.00 0.00 0.00 32 1009.0
20260508224554 66 264 1.7 10.4 0.00 0.00 0.00 28 1009.1
20260508223031 67 254 0.0 13.0 0.00 0.00 0.00 24 1009.4
20260508221519 67 264 1.7 12.2 0.00 0.00 0.00 22 1009.7
20260508220015 68 202 0.9 5.2 0.00 0.00 0.00 22 1009.8
20260508214512 67 271 0.9 14.8 0.00 0.00 0.00 26 1010.1
20260508213009 66 244 4.3 13.9 0.00 0.00 0.00 23 1010.3
20260508211506 66 281 3.5 13.9 0.00 0.00 0.00 22 1010.3
20260508210100 66 269 5.2 15.6 0.00 0.00 0.00 20 1010.3
20260508204556 65 302 4.3 10.4 0.00 0.00 0.00 19 1010.5
20260508203109 65 267 7.8 18.2 0.00 0.00 0.00 17 1010.8
20260508201550 65 258 6.1 13.0 0.00 0.00 0.00 16 1010.8
20260508200052 65 271 7.0 14.8 0.00 0.00 0.00 17 1010.8
20260508194542 66 269 0.9 11.3 0.00 0.00 0.00 19 1010.9
20260508193111 64 211 2.6 10.4 0.00 0.00 0.00 17 1011.2
20260508191533 63 293 5.2 15.6 0.00 0.00 0.00 17 1011.3
20260508190035 64 241 3.5 12.2 0.00 0.00 0.00 14 1011.3
20260508184524 63 289 6.1 13.0 0.00 0.00 0.00 14 1011.5
20260508183022 64 195 5.2 12.2 0.00 0.00 0.00 12 1011.4
20260508181522 63 267 4.3 13.9 0.00 0.00 0.00 10 1011.5
20260508180014 64 335 4.3 13.9 0.00 0.00 0.00 8 1011.3
20260508174509 65 319 2.6 7.0 0.00 0.00 0.00 8 1011.3
20260508173008 64 283 1.7 9.6 0.00 0.00 0.00 10 1011.4
20260508171506 65 276 0.9 7.0 0.00 0.00 0.00 10 1011.2
20260508170059 65 203 1.7 4.3 0.00 0.00 0.00 10 1011.1
20260508164602 64 206 3.5 9.6 0.00 0.00 0.00 8 1011.1
20260508163056 63 205 0.9 6.1 0.00 0.00 0.00 9 1011.2
20260508161554 63 272 2.6 11.3 0.00 0.00 0.00 8 1011.1